Location: Unspecified
(47.4992°N, 121.7766°W)
Time: 14:11:11
(UTC-07:00)

Cosmos 1674 - Visible Passes

Search period start: 18 June 2018 00:00
Search period end: 28 June 2018 00:00
Orbit: 498 x 520 km, 82.5° (Epoch: 18 June)

Date Brightness Start Highest point End Pass type
(mag) Time Alt. Az. Time Alt. Az. Time Alt. Az.
18 Jun 2.7 22:53:08 12° SSW 22:56:34 81° W 23:00:25 10° N visible
19 Jun 2.6 22:35:38 10° S 22:39:24 79° E 22:43:15 10° NNE visible
20 Jun 2.8 22:18:31 10° S 22:22:15 61° E 22:26:04 10° NNE visible
20 Jun 5.6 23:56:37 10° W 23:58:16 12° WNW 23:59:56 10° NW visible
21 Jun 3.0 22:01:28 10° SSE 22:05:08 47° E 22:08:50 10° NNE visible
21 Jun 5.5 23:38:41 10° WSW 23:41:00 15° WNW 23:43:20 10° NNW visible
22 Jun 3.4 21:44:30 10° SSE 21:48:01 36° E 21:51:34 10° NNE visible
22 Jun 5.3 23:20:59 10° WSW 23:23:44 19° WNW 23:26:31 10° NNW visible
23 Jun 5.0 23:03:24 10° SW 23:06:29 23° WNW 23:09:37 10° NNW visible
24 Jun 4.7 22:45:55 10° SW 22:49:15 28° WNW 22:52:38 10° NNW visible
25 Jun 4.3 22:28:30 10° SW 22:32:02 35° WNW 22:35:38 10° N visible
26 Jun 3.9 22:11:09 10° SSW 22:14:50 45° WNW 22:18:34 10° N visible
27 Jun 3.4 21:53:52 10° SSW 21:57:38 58° W 22:01:28 10° N visible
